ORBCOMM-X 1 21576U 91050C 25352.77950669 .00000260 00000+0 89727-4 0 9996 2 21576 98.3222 55.4180 0003478 8.1566 351.9680 14.43440320808744 ORBCOMM FM01 1 23545U 95017A 25352.38057317 .00005883 00000+0 57060-3 0 9996 2 23545 69.9624 333.9026 0004085 334.5480 25.5474 14.93162939639975 ORBCOMM FM02 1 23546U 95017B 25352.38249373 .00008374 00000+0 77646-3 0 9992 2 23546 69.9639 352.4924 0005278 349.2852 10.8191 14.94754247639643 ORBCOMM FM08 1 25112U 97084A 25352.62895810 .00001002 00000+0 31501-3 0 9990 2 25112 45.0120 201.9802 0006715 102.1955 257.9649 14.46611236468070 ORBCOMM FM10 1 25113U 97084B 25352.77707668 .00000846 00000+0 27368-3 0 9991 2 25113 45.0136 203.9913 0005228 69.6750 290.4663 14.46356749643237 ORBCOMM FM11 1 25114U 97084C 25352.95237497 .00000997 00000+0 31698-3 0 9998 2 25114 45.0120 204.1244 0006038 71.9801 288.1708 14.46101306468218 ORBCOMM FM12 1 25115U 97084D 25352.63589249 .00000968 00000+0 30863-3 0 9990 2 25115 45.0125 205.3754 0005137 67.2911 292.8483 14.46123236467961 ORBCOMM FM09 1 25116U 97084E 25352.68569118 .00000825 00000+0 27006-3 0 9996 2 25116 45.0129 206.2708 0006301 56.6343 303.5110 14.45961449468176 ORBCOMM FM05 1 25117U 97084F 25352.92572167 .00001010 00000+0 31657-3 0 9996 2 25117 45.0131 200.5831 0002779 72.2697 287.8458 14.46723951467358 ORBCOMM FM06 1 25118U 97084G 25352.62611029 .00001023 00000+0 31890-3 0 9998 2 25118 45.0122 201.5398 0001693 72.1297 305.7509 14.46886502468234 ORBCOMM FM07 1 25119U 97084H 25352.77310521 .00001013 00000+0 31614-3 0 9991 2 25119 45.0120 201.5823 0003585 67.4787 292.6444 14.46898193468241 ORBCOMM FM03 1 25158U 98007B 25352.96067877 .00000950 00000+0 37465-3 0 9993 2 25158 107.9646 155.2871 0046732 284.2791 75.3162 14.35040785450549 ORBCOMM FM04 1 25159U 98007C 25352.42545975 .00001019 00000+0 39737-3 0 9996 2 25159 107.9637 157.5333 0042554 282.5042 77.1339 14.35286467450653 ORBCOMM FM17 1 25413U 98046A 25352.64308287 .00000685 00000+0 28430-3 0 9995 2 25413 44.9936 106.7933 0001674 91.0562 269.0477 14.35548871429671 ORBCOMM FM18 1 25414U 98046B 25352.48932045 .00000935 00000+0 34462-3 0 9993 2 25414 44.9941 19.8974 0003401 161.8531 198.2440 14.39169246430796 ORBCOMM FM19 1 25415U 98046C 25352.49050027 .00000978 00000+0 35994-3 0 9994 2 25415 44.9952 22.1733 0002218 170.4690 347.5010 14.38988778430741 ORBCOMM FM20 1 25416U 98046D 25352.50785781 .00000644 00000+0 25927-3 0 9994 2 25416 44.9951 28.0941 0002076 237.5027 122.5621 14.37676104430787 ORBCOMM FM16 1 25417U 98046E 25352.90089229 .00000924 00000+0 33865-3 0 9994 2 25417 44.9950 15.2728 0003901 183.3130 176.7693 14.39546983430861 ORBCOMM FM15 1 25418U 98046F 25352.50726002 .00000872 00000+0 32463-3 0 9993 2 25418 44.9978 22.8518 0003756 183.1633 176.9193 14.39175118430794 ORBCOMM FM14 1 25419U 98046G 25352.26757126 .00000954 00000+0 34775-3 0 9997 2 25419 44.9968 21.6654 0002561 193.4601 166.6180 14.39594094430738 ORBCOMM FM13 1 25420U 98046H 25352.47900730 .00000749 00000+0 29085-3 0 9993 2 25420 44.9983 30.5083 0003814 150.5960 209.5104 14.38210101429763 ORBCOMM FM21 1 25475U 98053A 25352.80921597 .00000699 00000+0 27659-3 0 9991 2 25475 45.0074 114.9104 0001352 135.8757 224.2199 14.37806869423811 ORBCOMM FM22 1 25476U 98053B 25352.70509510 .00000825 00000+0 31089-3 0 9991 2 25476 45.0069 108.6853 0002441 102.5610 257.5512 14.38979776423846 ORBCOMM FM23 1 25477U 98053C 25352.57493842 .00000749 00000+0 29183-3 0 9994 2 25477 45.0073 117.8501 0001863 103.0950 257.0107 14.38044386423939 ORBCOMM FM24 1 25478U 98053D 25352.78457882 .00000824 00000+0 31241-3 0 9994 2 25478 45.0069 113.4929 0001860 119.5783 240.5251 14.38668605424028 ORBCOMM FM25 1 25479U 98053E 25352.69031288 .00000851 00000+0 32134-3 0 9995 2 25479 45.0063 112.2397 0004197 110.3876 249.7423 14.38636188424301 ORBCOMM FM26 1 25480U 98053F 25352.68838339 .00000747 00000+0 29373-3 0 9993 2 25480 45.0060 110.0880 0006296 121.2748 238.8718 14.37608122424193 ORBCOMM FM27 1 25481U 98053G 25352.60435829 .00000926 00000+0 34539-3 0 9992 2 25481 45.0046 112.7792 0001463 170.7292 189.3584 14.38670719424220 ORBCOMM FM28 1 25482U 98053H 25352.55188089 .00000696 00000+0 27041-3 0 9994 2 25482 45.0062 50.3008 0004668 172.1648 187.9275 14.38799571424901 ORBCOMM FM30 1 25980U 99065A 25352.86567102 .00000655 00000+0 26245-3 0 9992 2 25980 45.0322 295.2835 0006303 231.6532 128.3750 14.37776668361023 ORBCOMM FM31 1 25981U 99065B 25352.84760124 .00000719 00000+0 28388-3 0 9991 2 25981 45.0234 288.8216 0004567 263.5909 96.4420 14.37704267360573 ORBCOMM FM32 1 25982U 99065C 25352.87694156 .00000678 00000+0 27530-3 0 9998 2 25982 45.0167 306.4954 0006943 251.7571 108.2522 14.36761440361154 ORBCOMM FM33 1 25983U 99065D 25352.95404125 .00000685 00000+0 25767-3 0 9991 2 25983 45.0265 200.1932 0007769 274.6651 85.3311 14.40542427362700 ORBCOMM FM36 1 25984U 99065E 25352.87899619 .00000935 00000+0 34788-3 0 9990 2 25984 45.0397 295.2784 0001162 171.7936 188.2932 14.38727458361012 ORBCOMM FM35 1 25985U 99065F 25352.57763799 .00000703 00000+0 27914-3 0 9993 2 25985 45.0404 303.2433 0004706 263.0664 96.9650 14.37631500361319 ORBCOMM FM34 1 25986U 99065G 25352.89191487 .00000681 00000+0 27204-3 0 9995 2 25986 45.0398 302.2250 0003301 221.3591 138.7008 14.37582421361470 ORBCOMM FM38 1 33060U 08031A 25351.76850136 .00001404 00000+0 20080-3 0 9997 2 33060 48.4372 159.8035 0004435 120.0486 240.0870 14.82282580941971 ORBCOMM FM41 1 33061U 08031B 25352.85515539 .00001241 00000+0 18237-3 0 9994 2 33061 48.4425 163.0515 0003573 108.2701 352.1520 14.81840429941610 ORBCOMM FM29 1 33062U 08031C 25352.90182206 .00001213 00000+0 17837-3 0 9996 2 33062 48.4377 170.3894 0005282 105.6491 47.8084 14.81987342941534 ORBCOMM FM39 1 33063U 08031D 25352.75323979 .00001053 00000+0 16411-3 0 9993 2 33063 48.4390 197.4639 0006149 71.2312 288.9270 14.80426330941135 ORBCOMM FM37 1 33064U 08031E 25352.56917315 .00001071 00000+0 16566-3 0 9997 2 33064 48.4383 186.5737 0004757 92.6926 301.7307 14.80622865941368 ORBCOMM FM40 1 33065U 08031F 25352.88417068 .00001523 00000+0 21132-3 0 9990 2 33065 48.4405 165.8714 0005830 111.8599 45.5961 14.83132602941561 VESSELSAT 1 1 37840U 11058C 25352.55572055 .00000334 00000+0 37386-4 0 9998 2 37840 19.9626 58.2302 0013819 55.0073 305.1627 14.11399830732385 ORBCOMM FM109 1 40086U 14040A 25352.89253928 .00000353 00000+0 11155-3 0 9996 2 40086 47.0022 223.7412 0001209 113.2905 246.8108 14.58553458608022 ORBCOMM FM107 1 40087U 14040B 25352.70601031 .00000419 00000+0 12548-3 0 9999 2 40087 47.0036 225.5089 0000872 21.3712 338.7210 14.58629871608071 ORBCOMM FM106 1 40088U 14040C 25352.39385706 .00000808 00000+0 16438-3 0 9997 2 40088 47.0615 34.2122 0016929 206.4246 153.5783 14.70043710610578 ORBCOMM FM111 1 40089U 14040D 25352.86575007 .00001677 00000+0 20461-3 0 9991 2 40089 46.9992 216.6726 0028534 356.6955 3.3750 14.87753695617718 ORBCOMM FM104 1 40090U 14040E 25352.48676219 .00000422 00000+0 13051-3 0 9992 2 40090 47.0050 262.3857 0016740 326.0786 33.9027 14.57016685607497 ORBCOMM FM103 1 40091U 14040F 25352.82568090 .00000395 00000+0 12042-3 0 9996 2 40091 47.0043 225.6065 0001454 32.4477 327.6497 14.58543773591056 ORBCOMM FM114 1 41179U 15081A 25352.77387551 .00000254 00000+0 90554-4 0 9994 2 41179 47.0036 134.8052 0001740 105.1244 254.9834 14.58562887531419 ORBCOMM FM119 1 41180U 15081B 25352.56463199 .00000445 00000+0 13129-3 0 9990 2 41180 47.0014 45.1528 0001417 218.3945 141.6840 14.58511308532631 ORBCOMM FM105 1 41181U 15081C 25352.52248076 .00000177 00000+0 94254-4 0 9993 2 41181 47.0018 68.3121 0000858 58.7637 301.3327 14.45409601527417 ORBCOMM FM110 1 41182U 15081D 25352.76373638 .00000594 00000+0 16282-3 0 9990 2 41182 47.0009 134.3528 0002622 307.3301 52.7345 14.58591743531285 ORBCOMM FM118 1 41183U 15081E 25352.79823353 .00000467 00000+0 13581-3 0 9996 2 41183 47.0030 134.4885 0003229 272.6830 87.3686 14.58584081531393 ORBCOMM FM112 1 41184U 15081F 25352.45841982 .00000539 00000+0 15098-3 0 9993 2 41184 47.0000 44.6286 0000660 124.7374 235.3574 14.58587984532560 ORBCOMM FM113 1 41185U 15081G 25352.50419057 .00000626 00000+0 16943-3 0 9991 2 41185 47.0015 44.7688 0000650 160.7110 199.3800 14.58584604532557 ORBCOMM FM115 1 41186U 15081H 25352.68548123 .00000479 00000+0 12686-3 0 9994 2 41186 46.9977 241.8254 0000965 222.2413 137.8400 14.62931980534789 ORBCOMM FM108 1 41187U 15081J 25352.94631915 .00000703 00000+0 18603-3 0 9991 2 41187 47.0061 314.1896 0001779 69.6756 290.4321 14.58568245533769 ORBCOMM FM117 1 41188U 15081K 25352.91205124 .00000692 00000+0 18362-3 0 9997 2 41188 47.0023 313.0473 0002052 81.8411 278.2707 14.58593814533803 ORBCOMM FM116 1 41189U 15081L 25352.34439387 .00000758 00000+0 19769-3 0 9990 2 41189 47.0031 45.5009 0002607 284.1519 75.9077 14.58586403532535